When you browse on this site, cookies collect data to enhance your experience and personalize the content and advertising you see.
Visit our Privacy Policy to learn more. By continuing to use the site, you agree to this use of cookies and data.
  • în România
  • Lista ţărilor
  • Pe 7 zile
  • Temperatura apei
  • Hartă satelitară
  • Meteo pe hartă
  • Widget-uri
  • user-avatar
    Intrare

    Meteo pe oră la Neelovka

    Astăzi, 26 Martie, Marţi

    Timp Temperatura Precipitaţii Vânt Presiune Umiditate
    00:00 -6°C° 0 mm 3 m/s 751 mmHg 92%
    01:00 -6°C° 0 mm 3 m/s 752 mmHg 91%
    02:00 -6°C° 0 mm 3 m/s 752 mmHg 90%
    03:00 -5°C° 0 mm 2 m/s 753 mmHg 88%
    04:00 -5°C° 0 mm 2 m/s 753 mmHg 87%
    05:00 -5°C° 0 mm 2 m/s 753 mmHg 86%
    06:00 -4°C° 0 mm 2 m/s 753 mmHg 85%
    07:00 -3°C° 0 mm 2 m/s 753 mmHg 86%
    08:00 -2°C° 0 mm 3 m/s 753 mmHg 87%
    09:00 -1°C° 0 mm 4 m/s 753 mmHg 89%
    10:00 -1°C° 0.1 mm 4 m/s 752 mmHg 92%
    11:00 -1°C° 0.1 mm 5 m/s 752 mmHg 96%
    12:00 -1°C° 0.1 mm 5 m/s 752 mmHg 99%
    13:00 -1°C° 0.4 mm 6 m/s 751 mmHg 99%
    14:00 -1°C° 0.4 mm 6 m/s 751 mmHg 99%
    15:00 +1°C° 0.4 mm 6 m/s 751 mmHg 99%
    16:00 +1°C° 0.4 mm 6 m/s 751 mmHg 99%
    17:00 +1°C° 0.4 mm 5 m/s 751 mmHg 99%
    18:00 +1°C° 0.4 mm 5 m/s 751 mmHg 99%
    19:00 0°C° 0.3 mm 5 m/s 751 mmHg 98%
    20:00 0°C° 0.3 mm 4 m/s 751 mmHg 98%
    21:00 +1°C° 0.3 mm 3 m/s 752 mmHg 98%
    22:00 +1°C° 0.4 mm 3 m/s 752 mmHg 98%
    23:00 +2°C° 0.4 mm 2 m/s 752 mmHg 98%

    Mâine, 27 Martie, Miercuri

    Timp Temperatura Precipitaţii Vânt Presiune Umiditate
    00:00 +2°C° 0.4 mm 2 m/s 752 mmHg 98%
    01:00 +2°C° 0.8 mm 2 m/s 752 mmHg 98%
    02:00 +2°C° 0.8 mm 2 m/s 752 mmHg 99%
    03:00 +3°C° 0.8 mm 1 m/s 752 mmHg 99%
    04:00 +2°C° 1.2 mm 2 m/s 752 mmHg 98%
    05:00 +2°C° 1.2 mm 2 m/s 752 mmHg 98%
    06:00 +2°C° 1.2 mm 2 m/s 752 mmHg 98%
    07:00 +1°C° 0.9 mm 3 m/s 752 mmHg 97%
    08:00 0°C° 0.9 mm 4 m/s 752 mmHg 97%
    09:00 0°C° 0.9 mm 4 m/s 752 mmHg 97%
    10:00 0°C° 0.5 mm 4 m/s 752 mmHg 97%
    11:00 0°C° 0.5 mm 4 m/s 752 mmHg 98%
    12:00 0°C° 0.5 mm 4 m/s 752 mmHg 98%
    13:00 0°C° 0.6 mm 4 m/s 752 mmHg 98%
    14:00 +1°C° 0.6 mm 3 m/s 752 mmHg 98%
    15:00 +2°C° 0.6 mm 2 m/s 752 mmHg 98%
    16:00 +2°C° 1 mm 2 m/s 752 mmHg 98%
    17:00 +3°C° 1 mm 1 m/s 752 mmHg 97%
    18:00 +3°C° 1 mm 1 m/s 752 mmHg 97%
    19:00 +3°C° 0.9 mm 1 m/s 753 mmHg 97%
    20:00 +3°C° 0.9 mm 1 m/s 753 mmHg 97%
    21:00 +3°C° 0.9 mm 1 m/s 753 mmHg 98%
    22:00 +3°C° 0.6 mm 1 m/s 753 mmHg 98%
    23:00 +3°C° 0.6 mm 1 m/s 753 mmHg 98%

    Poimâine, 28 Martie, Joi

    Timp Temperatura Precipitaţii Vânt Presiune Umiditate
    00:00 +1°C° 0.6 mm 2 m/s 753 mmHg 98%
    01:00 +1°C° 0.5 mm 2 m/s 753 mmHg 97%
    02:00 +1°C° 0.5 mm 2 m/s 753 mmHg 97%
    03:00 0°C° 0.5 mm 3 m/s 752 mmHg 96%
    04:00 0°C° 0.3 mm 3 m/s 753 mmHg 96%
    05:00 -1°C° 0.3 mm 4 m/s 753 mmHg 96%
    06:00 -1°C° 0.3 mm 4 m/s 753 mmHg 95%
    07:00 -1°C° 0 mm 4 m/s 753 mmHg 96%
    08:00 -1°C° 0 mm 5 m/s 753 mmHg 96%
    09:00 -1°C° 0 mm 5 m/s 753 mmHg 96%
    10:00 -1°C° 0.1 mm 5 m/s 753 mmHg 97%
    11:00 -1°C° 0.1 mm 5 m/s 753 mmHg 98%
    12:00 -1°C° 0.1 mm 5 m/s 753 mmHg 99%
    13:00 -1°C° 0.4 mm 5 m/s 753 mmHg 97%
    14:00 -2°C° 0.4 mm 6 m/s 753 mmHg 95%
    15:00 -2°C° 0.4 mm 6 m/s 753 mmHg 94%
    16:00 -2°C° 0.1 mm 6 m/s 753 mmHg 91%
    17:00 -1°C° 0.1 mm 5 m/s 753 mmHg 88%
    18:00 -1°C° 0.1 mm 5 m/s 753 mmHg 86%
    19:00 -2°C° 0 mm 5 m/s 754 mmHg 86%
    20:00 -3°C° 0 mm 6 m/s 754 mmHg 87%
    21:00 -4°C° 0 mm 6 m/s 754 mmHg 88%
    22:00 -5°C° 0 mm 6 m/s 754 mmHg 88%
    23:00 -6°C° 0 mm 5 m/s 754 mmHg 89%

    29 Martie, Vineri

    Timp Temperatura Precipitaţii Vânt Presiune Umiditate
    00:00 -6°C° 0 mm 5 m/s 755 mmHg 89%
    01:00 -7°C° 0 mm 5 m/s 755 mmHg 90%
    02:00 -7°C° 0 mm 5 m/s 755 mmHg 90%
    03:00 -8°C° 0 mm 5 m/s 755 mmHg 91%
    04:00 -8°C° 0 mm 5 m/s 755 mmHg 91%
    05:00 -8°C° 0 mm 5 m/s 755 mmHg 91%
    06:00 -8°C° 0 mm 5 m/s 756 mmHg 92%
    07:00 -7°C° 0 mm 5 m/s 756 mmHg 92%
    08:00 -6°C° 0 mm 6 m/s 756 mmHg 92%
    09:00 -6°C° 0 mm 6 m/s 756 mmHg 92%
    10:00 -5°C° 0 mm 6 m/s 756 mmHg 91%
    11:00 -4°C° 0 mm 6 m/s 757 mmHg 91%
    12:00 -3°C° 0 mm 6 m/s 757 mmHg 90%
    13:00 -3°C° 0 mm 6 m/s 757 mmHg 88%
    14:00 -2°C° 0 mm 5 m/s 757 mmHg 86%
    15:00 -2°C° 0 mm 5 m/s 757 mmHg 85%
    16:00 -3°C° 0 mm 4 m/s 757 mmHg 85%
    17:00 -3°C° 0 mm 4 m/s 757 mmHg 85%
    18:00 -4°C° 0 mm 3 m/s 757 mmHg 85%
    19:00 -5°C° 0 mm 3 m/s 757 mmHg 87%
    20:00 -5°C° 0 mm 3 m/s 757 mmHg 88%
    21:00 -6°C° 0 mm 3 m/s 757 mmHg 89%
    22:00 -6°C° 0 mm 3 m/s 757 mmHg 90%
    23:00 -6°C° 0 mm 3 m/s 757 mmHg 91%

    30 Martie, Sâmbătă

    Timp Temperatura Precipitaţii Vânt Presiune Umiditate
    00:00 -6°C° 0 mm 3 m/s 757 mmHg 91%
    01:00 -5°C° 0 mm 3 m/s 757 mmHg 91%
    02:00 -5°C° 0 mm 3 m/s 757 mmHg 92%
    03:00 -4°C° 0 mm 3 m/s 757 mmHg 92%
    04:00 -4°C° 0 mm 3 m/s 757 mmHg 92%
    05:00 -4°C° 0 mm 3 m/s 757 mmHg 92%
    06:00 -4°C° 0 mm 3 m/s 756 mmHg 91%
    07:00 -2°C° 0.1 mm 3 m/s 756 mmHg 92%
    08:00 -2°C° 0.1 mm 4 m/s 757 mmHg 93%
    09:00 -1°C° 0.1 mm 4 m/s 757 mmHg 94%
    10:00 -1°C° 0.2 mm 4 m/s 757 mmHg 95%
    11:00 -1°C° 0.2 mm 4 m/s 757 mmHg 96%
    12:00 0°C° 0.2 mm 5 m/s 757 mmHg 97%
    13:00 0°C° 0 mm 5 m/s 757 mmHg 97%
    14:00 0°C° 0 mm 5 m/s 756 mmHg 97%
    15:00 0°C° 0 mm 5 m/s 756 mmHg 97%
    16:00 0°C° 0 mm 5 m/s 756 mmHg 96%
    17:00 0°C° 0 mm 5 m/s 756 mmHg 96%
    18:00 0°C° 0 mm 4 m/s 756 mmHg 95%
    19:00 0°C° 0 mm 4 m/s 756 mmHg 94%
    20:00 0°C° 0 mm 4 m/s 756 mmHg 93%
    21:00 +1°C° 0 mm 4 m/s 756 mmHg 93%
    22:00 +1°C° 0 mm 5 m/s 756 mmHg 91%
    23:00 +1°C° 0 mm 5 m/s 756 mmHg 90%

    31 Martie, Duminică

    Timp Temperatura Precipitaţii Vânt Presiune Umiditate
    00:00 +1°C° 0 mm 5 m/s 756 mmHg 89%
    01:00 0°C° 0 mm 4 m/s 756 mmHg 90%
    02:00 0°C° 0 mm 4 m/s 756 mmHg 91%
    03:00 0°C° 0 mm 4 m/s 756 mmHg 93%
    04:00 0°C° 0 mm 4 m/s 756 mmHg 94%
    05:00 +1°C° 0 mm 3 m/s 756 mmHg 95%
    06:00 +1°C° 0 mm 3 m/s 757 mmHg 96%
    07:00 +1°C° 0 mm 3 m/s 757 mmHg 97%
    08:00 +2°C° 0 mm 3 m/s 757 mmHg 97%
    09:00 +2°C° 0 mm 3 m/s 757 mmHg 97%
    10:00 +3°C° 0 mm 3 m/s 757 mmHg 97%
    11:00 +3°C° 0 mm 3 m/s 757 mmHg 97%
    12:00 +4°C° 0 mm 3 m/s 757 mmHg 96%
    13:00 +4°C° 0 mm 3 m/s 757 mmHg 96%
    14:00 +4°C° 0 mm 3 m/s 756 mmHg 96%
    15:00 +5°C° 0 mm 3 m/s 756 mmHg 95%
    16:00 +4°C° 0 mm 3 m/s 756 mmHg 96%
    17:00 +5°C° 0 mm 2 m/s 756 mmHg 96%
    18:00 +4°C° 0 mm 2 m/s 756 mmHg 97%
    19:00 +4°C° 0 mm 2 m/s 756 mmHg 95%
    20:00 +4°C° 0 mm 2 m/s 756 mmHg 93%
    21:00 +3°C° 0 mm 3 m/s 757 mmHg 91%
    22:00 +3°C° 0 mm 3 m/s 757 mmHg 88%
    23:00 +3°C° 0 mm 3 m/s 757 mmHg 85%
    Arată mai mult